GW3838 Weather Reports


Display with metric or nautical units.
time (UTC)temp
F
wind
direction
speed
MPH
gust
MPH
rain 1hr
in
rain 24hr
in
rain mn
in
humidity
%
barometer
mb
20260503034438 55 115 0.0 0.0 0.00 1.06 1.06 97 1022.1
20260503033935 55 124 0.0 0.0 0.00 1.06 1.06 97 1021.9
20260503033432 55 164 0.0 0.0 0.00 1.06 1.06 97 1021.9
20260503032930 55 164 0.0 0.0 0.05 1.06 1.06 97 1022.0
20260503032429 55 166 0.0 0.0 0.00 1.05 1.05 97 1021.8
20260503031926 55 137 0.0 0.0 0.00 1.05 1.05 97 1021.8
20260503031424 55 135 0.0 0.0 0.00 1.05 1.05 97 1021.8
20260503030920 55 135 0.0 0.0 0.00 1.05 1.05 97 1021.6
20260503030417 55 135 0.0 0.0 0.07 1.05 1.05 97 1021.6
20260503025913 55 123 1.0 1.0 0.07 1.05 1.05 97 1021.5
20260503025410 55 110 0.0 1.0 0.00 1.04 1.04 97 1021.7
20260503024908 55 80 1.0 2.0 0.00 1.04 1.04 97 1021.3
20260503024404 55 113 1.0 1.0 0.00 1.04 1.04 97 1021.5
20260503023901 55 92 1.0 3.0 0.07 1.04 1.04 97 1021.3
20260503023358 55 70 2.0 2.0 0.07 1.04 1.04 97 1021.3
20260503022855 56 69 2.0 2.0 0.00 1.03 1.03 96 1021.0
20260503022349 56 87 2.0 3.0 0.00 1.03 1.03 96 1021.0
20260503021846 56 117 0.0 1.0 0.05 1.03 1.03 96 1020.9
20260503021337 56 118 0.0 1.0 0.05 1.03 1.03 96 1020.8
20260503020834 56 109 1.0 2.0 0.00 1.02 1.02 96 1020.7
20260503020333 56 111 2.0 3.0 0.00 1.02 1.02 96 1020.5
20260503015829 56 112 1.0 3.0 0.07 1.02 1.02 96 1020.4
20260503015326 56 95 1.0 2.0 0.07 1.02 1.02 96 1020.4
20260503014821 57 74 2.0 2.0 0.00 1.01 1.01 96 1020.5
20260503014319 57 77 1.0 2.0 0.00 1.01 1.01 96 1020.5
20260503013816 57 50 2.0 3.0 0.05 1.01 1.01 96 1020.4
20260503013314 57 73 2.0 2.0 0.05 1.01 1.01 96 1020.6
20260503012810 57 102 1.0 2.0 0.00 1.00 1.00 96 1020.2
20260503012308 57 106 1.0 3.0 0.00 1.00 1.00 96 1020.1
20260503011805 57 110 1.0 2.0 0.07 1.00 1.00 96 1020.1
20260503011302 57 67 3.0 3.0 0.07 1.00 1.00 96 1020.0
20260503010757 57 107 1.0 3.0 0.00 0.99 0.99 96 1019.9
20260503010254 57 92 1.0 2.0 0.05 0.99 0.99 96 1020.1
20260503005751 57 108 0.0 2.0 0.05 0.99 0.99 96 1019.9
20260503005249 58 78 2.0 3.0 0.00 0.98 0.98 96 1019.8
20260503004744 58 109 3.0 3.0 0.00 0.98 0.98 95 1019.6
20260503004243 58 63 3.0 5.0 0.07 0.98 0.98 95 1019.5
20260503003740 58 114 2.0 6.0 0.07 0.98 0.98 95 1019.4
20260503003237 58 88 1.0 2.0 0.00 0.97 0.97 95 1019.5
20260503002733 58 104 1.0 2.0 0.00 0.97 0.97 95 1019.5
20260503002230 58 103 1.0 3.0 0.05 0.97 0.97 95 1019.3
20260503001726 58 96 1.0 2.0 0.00 0.96 0.96 95 1019.1
20260503001223 58 110 1.0 3.0 0.00 0.96 0.96 95 1019.4
20260503000721 58 98 1.0 2.0 0.07 0.96 0.96 95 1019.2
20260503000218 58 101 2.0 2.0 0.07 0.96 0.96 94 1018.8
20260502235715 59 109 1.0 2.0 0.00 0.95 0.95 94 1018.8
20260502235213 59 84 2.0 2.0 0.05 0.95 0.95 94 1018.7
20260502234709 59 109 1.0 2.0 0.05 0.95 0.95 94 1018.8
20260502234206 59 98 1.0 2.0 0.00 0.94 0.94 94 1018.6
20260502233702 59 107 1.0 2.0 0.07 0.94 0.94 93 1018.6
20260502233159 59 69 1.0 2.0 0.00 0.93 0.93 93 1018.4
20260502232654 60 102 2.0 2.0 0.05 0.93 0.93 93 1018.1
20260502232152 60 92 2.0 2.0 0.05 0.93 0.93 93 1018.3
20260502231649 60 127 0.0 1.0 0.00 0.92 0.92 93 1018.1
20260502231147 60 124 1.0 1.0 0.07 0.92 0.92 93 1018.1
20260502230646 60 84 2.0 2.0 0.07 0.92 0.92 92 1018.1
20260502230144 60 98 2.0 5.0 0.00 0.91 0.91 93 1017.9
20260502225639 61 75 3.0 3.0 0.07 0.91 0.91 93 1017.9
20260502225136 61 112 1.0 2.0 0.07 0.91 0.91 93 1017.7
20260502224632 60 155 0.0 2.0 0.05 0.90 0.90 94 1017.6
20260502224129 60 72 2.0 5.0 0.05 0.90 0.90 94 1018.0
20260502223627 60 98 1.0 3.0 0.00 0.89 0.89 95 1017.8
20260502223125 60 82 1.0 2.0 0.07 0.89 0.89 95 1018.2
20260502222622 60 92 2.0 3.0 0.07 0.89 0.89 96 1018.0
20260502222118 60 90 1.0 3.0 0.05 0.88 0.88 96 1017.9
20260502221614 60 105 1.0 3.0 0.05 0.88 0.88 97 1018.0
20260502221111 60 79 2.0 3.0 0.00 0.87 0.87 97 1017.8
20260502220608 59 71 2.0 2.0 0.07 0.87 0.87 97 1017.9
20260502220104 59 68 2.0 2.0 0.07 0.87 0.87 97 1017.8
20260502215601 59 114 0.0 3.0 0.05 0.86 0.86 97 1017.8
20260502215058 59 106 1.0 2.0 0.05 0.86 0.86 97 1017.7
20260502214555 60 60 1.0 2.0 0.00 0.85 0.85 97 1017.5
20260502214052 60 103 1.0 3.0 0.07 0.85 0.85 97 1017.6
20260502213549 59 101 2.0 3.0 0.07 0.85 0.85 97 1017.5
20260502213047 60 93 1.0 3.0 0.05 0.84 0.84 97 1017.5
20260502212546 59 111 1.0 2.0 0.05 0.84 0.84 97 1017.2
20260502212043 59 65 2.0 2.0 0.00 0.83 0.83 97 1017.3
20260502211538 60 121 0.0 2.0 0.07 0.83 0.83 97 1017.4
20260502211036 59 96 1.0 2.0 0.07 0.83 0.83 97 1017.4
20260502210532 59 116 1.0 2.0 0.00 0.82 0.82 97 1017.5
20260502210030 60 101 1.0 2.0 0.05 0.82 0.82 97 1017.5
20260502205526 60 86 1.0 2.0 0.00 0.81 0.81 97 1017.8
20260502205023 59 113 1.0 3.0 0.07 0.81 0.81 97 1017.6
20260502204520 59 100 1.0 2.0 0.07 0.81 0.81 97 1017.6
20260502204018 59 55 2.0 3.0 0.00 0.80 0.80 97 1017.6
20260502203515 59 55 2.0 5.0 0.07 0.80 0.80 97 1017.6
20260502203012 60 52 2.0 6.0 0.00 0.79 0.79 97 1017.3
20260502202508 60 56 3.0 5.0 0.05 0.79 0.79 97 1017.4
20260502202006 60 65 4.0 6.0 0.00 0.78 0.78 97 1017.3
20260502201502 60 0 4.0 6.0 0.07 0.78 0.78 97 1017.2
20260502200958 60 67 2.0 6.0 0.07 0.78 0.78 97 1017.5
20260502200454 60 24 3.0 3.0 0.05 0.77 0.77 97 1017.3
20260502195952 59 52 2.0 6.0 0.05 0.77 0.77 97 1017.4
20260502195450 59 23 5.0 6.0 0.00 0.76 0.76 98 1017.4
20260502194945 59 89 1.0 3.0 0.07 0.76 0.76 98 1017.5
20260502194443 59 84 1.0 3.0 0.00 0.75 0.75 98 1017.5
20260502193938 58 68 3.0 3.0 0.05 0.75 0.75 98 1017.5
20260502193436 58 80 2.0 3.0 0.05 0.75 0.75 98 1017.5
20260502192931 58 44 3.0 6.0 0.07 0.74 0.74 98 1017.6
20260502192428 57 1 4.0 6.0 0.07 0.74 0.74 98 1017.7
20260502191925 58 39 5.0 8.0 0.00 0.73 0.73 98 1017.6
20260502191423 59 21 4.0 5.0 0.05 0.73 0.73 98 1017.5
20260502190920 59 49 5.0 6.0 0.05 0.73 0.73 98 1017.4
20260502190417 59 15 3.0 3.0 0.07 0.72 0.72 98 1017.2
20260502185914 59 94 3.0 6.0 0.07 0.72 0.72 99 1017.2
20260502185409 59 25 5.0 7.0 0.05 0.71 0.71 99 1017.3
20260502184907 59 46 5.0 6.0 0.05 0.71 0.71 99 1017.4
20260502184402 59 48 3.0 5.0 0.07 0.70 0.70 99 1017.3
20260502183859 59 359 3.0 6.0 0.07 0.70 0.70 99 1017.5
20260502183354 59 29 3.0 3.0 0.00 0.69 0.69 99 1017.5
20260502182850 59 342 4.0 7.0 0.05 0.69 0.69 99 1017.7
20260502182346 59 87 2.0 5.0 0.05 0.69 0.69 99 1017.6
20260502181842 59 79 1.0 6.0 0.07 0.68 0.68 99 1017.5
20260502181341 58 60 3.0 6.0 0.07 0.68 0.68 99 1017.6
20260502180839 59 31 5.0 7.0 0.07 0.67 0.67 99 1017.6
20260502180336 59 36 4.0 6.0 0.07 0.67 0.67 99 1017.3
20260502170254 59 100 1.0 3.0 0.05 0.62 0.62 99 1016.9
20260502164242 59 61 2.0 2.0 0.05 0.60 0.60 99 1017.4
20260502163737 59 28 2.0 3.0 0.05 0.60 0.60 99 1017.1
20260502163234 59 88 2.0 3.0 0.00 0.59 0.59 99 1017.0
20260502162731 58 111 0.0 2.0 0.07 0.59 0.59 99 1017.2
20260502162228 59 84 1.0 3.0 0.07 0.59 0.59 99 1017.7
20260502161725 59 349 4.0 5.0 0.05 0.58 0.58 99 1017.5
20260502161222 59 100 1.0 5.0 0.05 0.58 0.58 99 1017.6
20260502160720 59 70 1.0 6.0 0.07 0.57 0.57 99 1017.3
20260502160219 59 76 2.0 2.0 0.07 0.57 0.57 99 1017.4
20260502152143 58 42 2.0 5.0 0.07 0.54 0.54 99 1017.1
20260502151640 57 62 2.0 2.0 0.00 0.53 0.53 99 1017.0
20260502151137 57 83 1.0 3.0 0.05 0.53 0.53 99 1017.1
20260502150635 57 68 2.0 5.0 0.05 0.53 0.53 99 1017.2
20260502150131 58 48 2.0 2.0 0.00 0.52 0.52 99 1017.7
20260502130519 56 342 4.0 5.0 0.05 0.45 0.45 99 1018.4
20260502123502 56 31 3.0 3.0 0.00 0.43 0.43 99 1017.5
20260502122959 56 48 3.0 5.0 0.05 0.43 0.43 99 1017.4
20260502122455 56 38 2.0 3.0 0.00 0.42 0.42 99 1017.3
20260502121953 57 87 1.0 3.0 0.00 0.42 0.42 99 1017.4
20260502121450 57 56 2.0 3.0 0.07 0.42 0.42 99 1017.7
20260502120948 57 94 1.0 2.0 0.07 0.42 0.42 99 1017.5
20260502120444 56 26 3.0 5.0 0.00 0.41 0.41 99 1017.5
20260502115438 56 89 3.0 3.0 0.07 0.41 0.41 99 1017.3
20260502114934 57 69 2.0 3.0 0.07 0.41 0.41 99 1017.0
20260502114431 57 81 2.0 5.0 0.00 0.40 0.40 99 1017.3
20260502113928 58 82 1.0 2.0 0.05 0.40 0.40 99 1017.2
20260502113426 58 90 1.0 2.0 0.05 0.40 0.40 99 1017.4
20260502112925 58 65 2.0 2.0 0.00 0.39 0.39 99 1017.1
20260502112422 58 64 2.0 3.0 0.00 0.39 0.39 99 1016.9
20260502111919 58 35 2.0 6.0 0.07 0.39 0.39 99 1016.7
20260502111416 58 57 1.0 5.0 0.07 0.39 0.39 99 1016.6
20260502110913 58 109 0.0 2.0 0.00 0.38 0.38 99 1016.6
20260502110411 58 94 1.0 2.0 0.00 0.38 0.38 99 1016.6
20260502105908 58 61 2.0 2.0 0.05 0.38 0.38 99 1016.6
20260502105405 58 50 3.0 5.0 0.05 0.38 0.38 99 1016.5
20260502104903 58 22 3.0 3.0 0.00 0.37 0.37 99 1016.3
20260502104400 58 351 3.0 5.0 0.00 0.37 0.37 99 1016.4
20260502103857 58 351 3.0 5.0 0.07 0.37 0.37 99 1016.4
20260502103355 58 349 3.0 5.0 0.07 0.37 0.37 99 1016.4
20260502102852 58 52 2.0 3.0 0.00 0.36 0.36 99 1015.9
20260502102348 58 21 3.0 6.0 0.00 0.36 0.36 99 1016.1
20260502101846 58 318 2.0 2.0 0.05 0.36 0.36 99 1015.9
20260502101344 58 71 2.0 3.0 0.00 0.35 0.35 99 1015.7
20260502100842 58 57 3.0 3.0 0.00 0.35 0.35 99 1015.7
20260502100341 58 89 1.0 2.0 0.07 0.35 0.35 99 1015.9
20260502091315 58 108 1.0 2.0 0.05 0.32 0.32 99 1017.0
20260502090813 58 104 1.0 1.0 0.00 0.31 0.31 99 1016.9
20260502090309 58 32 3.0 3.0 0.07 0.31 0.31 99 1016.8
20260502071204 60 160 2.0 5.0 0.05 0.21 0.21 99 1018.7
20260502070702 60 185 3.0 3.0 0.07 0.20 0.20 99 1018.8
20260502070200 61 186 2.0 3.0 0.12 0.20 0.20 99 1018.4
20260502065658 60 184 1.0 2.0 0.05 0.19 0.19 99 1018.2
20260502065155 60 251 3.0 3.0 0.07 0.18 0.18 99 1018.1
20260502064654 60 65 2.0 2.0 0.07 0.17 0.17 99 1017.4
20260502064151 61 146 0.0 0.0 0.12 0.17 0.17 99 1017.8
20260502063649 61 118 0.0 2.0 0.12 0.16 0.16 99 1017.7
20260502063146 61 87 2.0 2.0 0.12 0.15 0.15 99 1017.6
20260502062643 60 141 1.0 1.0 0.12 0.13 0.13 99 1018.3
20260502062141 61 174 1.0 1.0 0.12 0.12 0.12 98 1018.7
20260502061639 61 188 1.0 2.0 0.12 0.11 0.11 98 1018.8
20260502061136 61 318 2.0 6.0 0.12 0.10 0.10 98 1018.2
20260502060636 61 65 2.0 2.0 0.07 0.09 0.09 98 1017.9
20260502060133 62 334 3.0 3.0 0.05 0.08 0.08 98 1018.2
20260502055631 62 102 1.0 2.0 0.07 0.07 0.07 98 1018.2
20260502055129 62 4 2.0 2.0 0.07 0.07 0.07 98 1018.4
20260502054628 62 60 2.0 3.0 0.05 0.06 0.06 98 1018.5
20260502054125 62 129 0.0 1.0 0.05 0.06 0.06 98 1018.4
20260502053622 62 93 1.0 2.0 0.07 0.05 0.05 98 1018.3
20260502053119 62 122 1.0 1.0 0.00 0.04 0.04 98 1018.7
20260502052617 62 165 0.0 1.0 0.07 0.04 0.04 98 1018.7
20260502052115 62 144 0.0 1.0 0.07 0.04 0.04 98 1018.7
20260502051613 62 91 1.0 1.0 0.05 0.03 0.03 98 1018.6
20260502051111 62 93 1.0 3.0 0.05 0.03 0.03 98 1018.6
20260502050607 62 83 2.0 2.0 0.00 0.02 0.02 98 1018.5
20260502050104 62 102 1.0 2.0 0.00 0.02 0.02 98 1018.4
20260502045600 62 50 2.0 2.0 0.00 0.02 0.02 98 1018.7
20260502045057 62 91 1.0 2.0 0.07 0.02 0.02 98 1018.7
20260502044553 62 95 1.0 2.0 0.07 0.02 0.02 98 1018.6
20260502044050 62 23 2.0 2.0 0.00 0.01 0.01 98 1018.5
20260502043548 62 104 1.0 2.0 0.00 0.01 0.01 98 1018.4
20260502043044 62 172 1.0 2.0 0.00 0.01 0.01 98 1018.6
20260502042539 62 60 2.0 2.0 0.05 0.01 0.01 98 1018.7
20260502042037 62 340 0.0 2.0 0.05 0.01 0.01 98 1018.3
20260502041534 62 178 1.0 1.0 0.00 0.00 0.00 98 1018.2
20260502041031 63 169 1.0 1.0 0.00 0.00 0.00 98 1018.5
20260502040528 63 84 1.0 2.0 0.00 0.00 0.00 97 1018.2
20260502040025 63 109 1.0 1.0 0.07 0.03 0.03 97 1018.0
20260502035521 63 106 1.0 1.0 0.07 0.03 0.03 97 1018.0
20260502035018 63 86 1.0 2.0 0.00 0.02 0.02 97 1018.2